Location: Unspecified
(0.0000°N, 0.0000°E)
Time: 08:27:21
(UTC+00:00)

COSMOS 2501 (GLONASS) - Visible Passes

Search period start: 23 October 2019 00:00
Search period end: 02 November 2019 00:00
Orbit: 19085 x 19175 km, 64.0° (Epoch: 22 October)

Date Brightness Start Highest point End Pass type
(mag) Time Alt. Az. Time Alt. Az. Time Alt. Az.
23 Oct ? 02:07:00 10° NNW 04:32:04 84° W 07:03:13 10° SSE visible
24 Oct ? 00:23:46 10° N 03:05:06 68° E 05:19:25 10° SSE visible
24 Oct ? 18:37:26 10° SW 19:50:38 19° W 03:30:05 10° SSE visible
25 Oct ? 16:30:30 10° SSW 18:25:29 44° W 01:18:06 10° SE visible
26 Oct ? 14:42:07 10° SSW 16:59:00 70° W 19:39:25 10° N visible
27 Oct ? 12:58:33 10° SSW 15:32:09 81° E 17:56:14 10° NNE visible
29 Oct ? 05:14:23 10° NW 06:52:49 31° W 14:14:20 10° NE visible
30 Oct ? 03:20:01 10° NNW 05:26:37 57° W 08:15:09 10° S visible
31 Oct ? 01:34:42 10° NNW 03:59:44 84° W 06:30:55 10° SSE visible
31 Oct ? 23:51:28 10° N 02:32:45 68° E 04:47:07 10° SSE visible
